Terug naar catalogus

COSMOS 1249 COOLANT

LostLEO
NORAD 26510·DEBRIS·🇷🇺 Russia

Gelanceerd Mar 5, 1981 vanaf Baikonur Cosmodrome

Loading…

Volgende Passages (komende 24 uur)

TLE

VerouderdSource: Space-Track

Epoch: May 13, 2026, 09:44 UTC

1 26510U 81021M   26133.40617279  .00000022  00000-0  87006-4 0  9996
2 26510  64.9652  50.4418 0065121 258.9433 213.5180 13.92047908646716

Volg COSMOS 1249 COOLANT in realtime met AllMySat

Download on the App Store